カタログに戻る

BREEZE-M R/B

運用中MEO
NORAD 39376·ROCKET BODY·🇷🇺 Russia

打ち上げ Nov 11, 2013 から Baikonur Cosmodrome

Loading…

次のパス (今後24時間)

TLE

最新Source: Space-Track

元期: Sep 14, 2026, 09:35 UTC

1 39376U 13062B   26257.39974589 -.00000227  00000-0  00000-0 0  9998
2 39376   9.6046  50.7670 0233161 119.1563 243.2906  1.04210279 48871

AllMySatでBREEZE-M R/Bをリアルタイム追跡

Download on the App Store